FW6692 Weather Reports


Display with metric or nautical units.
time (UTC)temp
F
wind
direction
speed
MPH
gust
MPH
rain 1hr
in
rain 24hr
in
rain mn
in
humidity
%
barometer
mb
20260906230054 93 165 5.0 14.0 0.00 0.00 0.00 50 1017.8
20260906224604 94 138 2.0 7.0 0.00 0.00 0.00 49 1017.8
20260906223105 93 0 3.0 9.0 0.00 0.00 0.00 50 1017.8
20260906221602 93 153 6.0 15.0 0.00 0.00 0.00 50 1018.2
20260906220051 94 136 5.0 10.0 0.00 0.00 0.00 50 1018.3
20260906214551 95 228 0.0 7.0 0.00 0.00 0.00 49 1018.2
20260906213056 93 167 3.0 12.0 0.00 0.00 0.00 53 1018.4
20260906211554 92 126 4.0 13.0 0.00 0.00 0.00 54 1018.6
20260906210110 92 217 4.0 9.0 0.00 0.00 0.00 53 1018.9
20260906204553 93 148 7.0 14.0 0.00 0.00 0.00 53 1019.1
20260906203050 93 84 1.0 12.0 0.00 0.00 0.00 52 1019.3
20260906201620 91 115 4.0 16.0 0.00 0.00 0.00 53 1019.4
20260906200055 92 161 5.0 15.0 0.00 0.00 0.00 53 1019.7
20260906194603 91 194 5.0 15.0 0.00 0.00 0.00 55 1020.0
20260906193051 91 131 6.0 12.0 0.00 0.00 0.00 57 1020.0
20260906191605 90 126 5.0 13.0 0.00 0.00 0.00 59 1020.2
20260906190048 89 168 3.0 15.0 0.00 0.00 0.00 61 1020.4
20260906184558 90 178 2.0 8.0 0.00 0.00 0.00 58 1020.5
20260906183055 89 154 3.0 8.0 0.00 0.00 0.00 61 1020.7
20260906181601 89 0 2.0 7.0 0.00 0.00 0.00 61 1021.0
20260906180100 85 224 1.0 6.0 0.00 0.00 0.00 70 1021.4
20260906174553 82 191 0.0 7.0 0.00 0.00 0.00 76 1021.4
20260906173051 81 175 4.0 10.0 0.00 0.00 0.00 79 1021.8
20260906171601 82 142 5.0 10.0 0.00 0.00 0.00 76 1022.3
20260906170054 82 180 6.0 9.0 0.00 0.00 0.00 74 1022.6
20260906164552 81 158 4.0 9.0 0.00 0.00 0.00 76 1022.5
20260906163058 81 147 6.0 10.0 0.00 0.00 0.00 76 1022.4
20260906161553 81 135 5.0 9.0 0.00 0.00 0.00 75 1022.4
20260906160057 80 159 6.0 10.0 0.00 0.00 0.00 78 1022.2
20260906154555 79 135 5.0 11.0 0.00 0.00 0.00 81 1022.1
20260906153054 78 126 7.0 9.0 0.00 0.00 0.00 83 1022.1
20260906151549 78 123 4.0 7.0 0.00 0.00 0.00 83 1021.8
20260906150057 79 157 4.0 9.0 0.00 0.00 0.00 82 1021.8
20260906144557 80 148 5.0 10.0 0.00 0.00 0.00 80 1021.5
20260906143054 81 136 4.0 7.0 0.00 0.00 0.00 75 1021.4
20260906141551 80 0 0.0 3.0 0.00 0.00 0.00 76 1021.2
20260906140100 80 33 0.0 3.0 0.00 0.00 0.00 77 1021.0
20260906134605 77 151 1.0 3.0 0.00 0.00 0.00 86 1021.0
20260906133057 75 0 0.0 0.0 0.00 0.00 0.00 89 1020.8
20260906131550 73 0 0.0 2.0 0.00 0.00 0.00 90 1020.8
20260906130106 72 151 1.0 3.0 0.00 0.00 0.00 90 1020.6
20260906124555 72 0 0.0 2.0 0.00 0.00 0.00 89 1020.5
20260906123054 72 0 0.0 0.0 0.00 0.00 0.00 89 1020.2
20260906121605 72 0 0.0 0.0 0.00 0.00 0.00 89 1020.1
20260906120052 73 0 0.0 0.0 0.00 0.00 0.00 87 1019.7
20260906114609 73 0 0.0 0.0 0.00 0.00 0.00 88 1019.2
20260906113103 73 0 0.0 0.0 0.00 0.00 0.00 88 1019.3
20260906111549 73 0 0.0 0.0 0.00 0.00 0.00 88 1019.3
20260906110050 73 0 0.0 0.0 0.00 0.00 0.00 87 1018.9
20260906104545 74 0 0.0 0.0 0.00 0.00 0.00 86 1018.7
20260906103054 75 0 0.0 0.0 0.00 0.00 0.00 84 1019.1
20260906101556 76 0 0.0 0.0 0.00 0.00 0.00 85 1018.9
20260906100050 76 0 0.0 0.0 0.00 0.00 0.00 85 1018.9
20260906094554 75 0 0.0 0.0 0.00 0.00 0.00 85 1018.9
20260906093055 75 0 0.0 0.0 0.00 0.00 0.00 84 1018.8
20260906091551 76 0 0.0 0.0 0.00 0.00 0.00 83 1018.9
20260906090052 76 0 0.0 0.0 0.00 0.00 0.00 83 1018.6
20260906084557 76 0 0.0 0.0 0.00 0.00 0.00 83 1018.5
20260906083051 76 0 0.0 0.0 0.00 0.00 0.00 82 1018.6
20260906081556 77 0 0.0 0.0 0.00 0.00 0.00 82 1018.6
20260906080051 77 0 0.0 0.0 0.00 0.00 0.00 82 1018.8
20260906074552 77 0 0.0 0.0 0.00 0.00 0.00 82 1018.9
20260906073051 77 0 0.0 3.0 0.00 0.00 0.00 81 1019.2
20260906071559 78 150 1.0 3.0 0.00 0.00 0.00 80 1019.2
20260906070053 78 0 0.0 0.0 0.00 0.00 0.00 80 1019.2
20260906064556 78 0 0.0 0.0 0.00 0.00 0.00 79 1019.4
20260906063056 78 0 0.0 0.0 0.00 0.00 0.00 79 1019.3
20260906061556 78 150 2.0 3.0 0.00 0.00 0.00 78 1019.6
20260906060128 79 150 2.0 3.0 0.00 0.00 0.00 77 1019.6
20260906054611 80 150 2.0 3.0 0.00 0.00 0.00 75 1019.6
20260906053055 80 150 2.0 5.0 0.00 0.00 0.00 74 1019.6
20260906051550 81 150 3.0 8.0 0.00 0.00 0.00 73 1019.7
20260906050105 81 120 7.0 10.0 0.00 0.00 0.00 72 1019.9
20260906044554 81 117 7.0 9.0 0.00 0.00 0.00 71 1019.8
20260906043057 82 133 5.0 10.0 0.00 0.00 0.00 70 1019.7
20260906041554 83 133 9.0 16.0 0.00 0.00 0.00 68 1019.7
20260906040052 83 136 9.0 13.0 0.00 0.00 0.00 68 1019.8
20260906034601 83 121 8.0 12.0 0.00 0.00 0.00 67 1019.5
20260906033055 84 123 7.0 10.0 0.00 0.00 0.00 67 1019.5
20260906031613 84 101 8.0 14.0 0.00 0.00 0.00 66 1019.3
20260906030101 85 98 10.0 18.0 0.00 0.00 0.00 64 1019.1
20260906024556 85 111 8.0 14.0 0.00 0.00 0.00 64 1018.8
20260906023108 85 99 5.0 8.0 0.00 0.00 0.00 62 1018.4
20260906021552 86 98 6.0 9.0 0.00 0.00 0.00 60 1017.9
20260906020056 86 112 7.0 11.0 0.00 0.00 0.00 58 1017.9
20260906014555 87 86 3.0 6.0 0.00 0.00 0.00 56 1017.8
20260906013054 87 138 0.0 2.0 0.00 0.00 0.00 55 1017.5
20260906011556 88 138 2.0 3.0 0.00 0.00 0.00 55 1017.3
20260906010104 89 128 4.0 8.0 0.00 0.00 0.00 53 1017.2
20260906004558 91 124 4.0 9.0 0.00 0.00 0.00 50 1017.1
20260906003052 92 133 8.0 12.0 0.00 0.00 0.00 49 1017.2
20260906001549 92 127 9.0 13.0 0.00 0.00 0.00 48 1017.1
20260906000108 93 112 10.0 16.0 0.00 0.00 0.00 47 1017.2
20260905234556 94 132 9.0 14.0 0.00 0.00 0.00 47 1016.8
20260905233056 94 140 11.0 16.0 0.00 0.00 0.00 47 1017.0
20260905231550 94 127 12.0 18.0 0.00 0.00 0.00 46 1017.0